Location: Hilton Head Island
(32.2163°N, 80.7526°W)
Time: 06:23:45
(UTC-04:00)

Altair - Pass Details

Date: 23 February 2026
Orbit: 1502 x 1682 km, 47.2° (Epoch: 8 March)

Event Time Altitude Azimuth Distance (km) Brightness Sun altitude
Exits shadow 02:01:35 13° 62° (ENE) 3,405 9.6 -60.2°
Drops below altitude 10° 02:02:27 10° 61° (ENE) 3,671 9.8 -60.0°
Sets 02:05:36 0° 56° (NE) 4,669 10.5 -59.5°
